Mesa, AZ

6:02 AM MST on February 19, 2017 (GMT -0700)
Phoenix-Mesa Gateway Airport

Weather History for KIWA - September, 2013

Change the Weather History Date:

Sunday, September 8, 2013

  Actual Average Record
Temperature  
Mean Temperature 78 °F -  
Max Temperature 84 °F 99 °F 107 °F (2011)
Min Temperature 73 °F 75 °F 69 °F (2006)
Cooling Degree Days 14    
Growing Degree Days 28 (Base 50)    
Moisture  
Dew Point 66 °F    
Average Humidity 62    
Maximum Humidity 89    
Minimum Humidity 42    
Precipitation  
Precipitation 0.00 in - - ()
Sea Level Pressure  
Sea Level Pressure 29.85 in    
Wind  
Wind Speed 4 mph (South)    
Max Wind Speed 9 mph    
Max Gust Speed -    
Visibility 12 miles    
Events Rain    
Averages and records for this station are not official NWS values.
T = Trace of Precipitation, MM = Missing Value Source: NWS Daily Summary

Daily Weather History Graph

Daily Weather History Graph

Search for Another Location

Airport or City:

Trip Planner

Search our weather history database for the weather conditions in past years. The results will help you decide how hot, cold, wet, or windy it might be!

Date:

Astronomy

Sep. 08, 2013 Rise Set
Actual Time 6:05 AM MST 6:42 PM MST
Civil Twilight 5:40 AM MST 7:07 PM MST
Nautical Twilight 5:11 AM MST 7:36 PM MST
Astronomical Twilight 4:41 AM MST 8:06 PM MST
Moon 9:14 AM MST (9/8) 8:33 PM MST (9/8)
Length of Visible Light 13h 26m
Length of Day
12h 36m
Waxing Crescent, 12% of the Moon is Illuminated
Sep 8
Waxing Crescent
Sep 12
First Quarter
Sep 19
Full
Sep 26
Last Quarter
Oct 4
New

Hourly Weather History & Observations

Time (MST) Temp. Heat Index Dew Point Humidity Pressure Visibility Wind Dir Wind Speed Gust Speed Precip Events Conditions
12:15 AM 84.2 °F 83.8 °F 59.0 °F 42% 29.88 in 10.0 mi Calm Calm - N/A   Clear
12:35 AM 82.4 °F 82.9 °F 60.8 °F 48% 29.87 in 10.0 mi SSE 3.5 mph - N/A   Clear
12:55 AM 82.4 °F 82.9 °F 60.8 °F 48% 29.87 in 10.0 mi SSE 5.8 mph - N/A   Clear
1:15 AM 82.4 °F 82.5 °F 59.0 °F 45% 29.87 in 10.0 mi SE 4.6 mph - N/A   Clear
1:35 AM 82.4 °F 82.5 °F 59.0 °F 45% 29.87 in 10.0 mi SE 6.9 mph - N/A   Clear
1:55 AM 82.4 °F 82.9 °F 60.8 °F 48% 29.87 in 10.0 mi SE 6.9 mph - N/A   Clear
2:15 AM 82.4 °F 82.9 °F 60.8 °F 48% 29.87 in 10.0 mi SSE 5.8 mph - N/A   Clear
2:35 AM 82.4 °F 82.9 °F 60.8 °F 48% 29.86 in 10.0 mi SSE 4.6 mph - N/A   Clear
2:55 AM 80.6 °F 81.5 °F 60.8 °F 51% 29.86 in 10.0 mi SSE 4.6 mph - N/A   Clear
3:15 AM 80.6 °F 81.5 °F 60.8 °F 51% 29.86 in 10.0 mi SSE 4.6 mph - N/A   Clear
3:35 AM 80.6 °F 81.5 °F 60.8 °F 51% 29.86 in 10.0 mi South 5.8 mph - N/A   Clear
3:55 AM 80.6 °F 81.5 °F 60.8 °F 51% 29.85 in 10.0 mi SSE 4.6 mph - N/A   Scattered Clouds
4:15 AM 80.6 °F 81.5 °F 60.8 °F 51% 29.86 in 10.0 mi South 4.6 mph - N/A   Scattered Clouds
4:35 AM 80.6 °F 81.5 °F 60.8 °F 51% 29.86 in 10.0 mi Calm Calm - N/A   Mostly Cloudy
4:47 AM 80.6 °F 81.8 °F 62.6 °F 54% 29.86 in 20.0 mi ESE 4.6 mph - N/A   Mostly Cloudy
4:55 AM 80.6 °F 81.5 °F 60.8 °F 51% 29.86 in 10.0 mi Calm Calm - N/A   Mostly Cloudy
5:15 AM 80.6 °F 81.5 °F 60.8 °F 51% 29.87 in 10.0 mi SSE 5.8 mph - N/A   Mostly Cloudy
5:35 AM 80.6 °F 81.5 °F 60.8 °F 51% 29.87 in 10.0 mi SSE 4.6 mph - N/A   Scattered Clouds
5:47 AM 80.6 °F 81.8 °F 62.6 °F 54% 29.87 in 20.0 mi South 5.8 mph - N/A   Overcast
6:47 AM 80.6 °F 82.7 °F 66.2 °F 61% 29.88 in 10.0 mi South 6.9 mph - N/A Rain Rain
7:47 AM 78.8 °F - 68.0 °F 69% 29.90 in 15.0 mi SE 8.1 mph - N/A   Overcast
8:47 AM 75.2 °F - 68.0 °F 78% 29.94 in 10.0 mi SSE 5.8 mph - N/A Rain Rain
9:05 AM 75.2 °F - 68.0 °F 78% 29.94 in 10.0 mi West 9.2 mph - N/A Rain Rain
9:47 AM 73.4 °F - 69.8 °F 88% 29.95 in 15.0 mi West 5.8 mph - N/A   Overcast
10:47 AM 75.2 °F - 69.8 °F 83% 29.94 in 10.0 mi Calm Calm - N/A   Overcast
11:47 AM 75.2 °F - 71.6 °F 89% 29.93 in 10.0 mi Variable 5.8 mph - N/A Rain Light Rain
12:47 PM 78.8 °F - 71.6 °F 78% 29.90 in 20.0 mi Variable 4.6 mph - N/A   Mostly Cloudy
1:47 PM 80.6 °F 83.9 °F 69.8 °F 70% 29.87 in 30.0 mi North 6.9 mph - N/A   Mostly Cloudy
2:47 PM 80.6 °F 83.9 °F 69.8 °F 70% 29.84 in 30.0 mi WNW 8.1 mph - N/A   Mostly Cloudy
3:47 PM 84.2 °F 88.4 °F 69.8 °F 62% 29.82 in 30.0 mi SW 8.1 mph - N/A   Mostly Cloudy
4:47 PM 84.2 °F 85.6 °F 64.4 °F 51% 29.80 in 30.0 mi NW 4.6 mph - N/A   Overcast
5:47 PM 84.2 °F 85.6 °F 64.4 °F 51% 29.78 in 30.0 mi Calm Calm - N/A   Mostly Cloudy
6:47 PM 84.2 °F 86.6 °F 66.2 °F 55% 29.80 in 20.0 mi WSW 3.5 mph - N/A   Overcast
7:50 PM 80.6 °F 82.7 °F 66.2 °F 61% 29.80 in 20.0 mi Calm Calm - N/A   Overcast
7:55 PM 80.6 °F 82.7 °F 66.2 °F 61% 29.80 in 10.0 mi Calm Calm - N/A   Clear
8:15 PM 80.6 °F 83.2 °F 68.0 °F 65% 29.80 in 10.0 mi SSW 5.8 mph - N/A   Clear
8:35 PM 80.6 °F 83.2 °F 68.0 °F 65% 29.81 in 10.0 mi SSW 4.6 mph - N/A   Clear
8:47 PM 80.6 °F 83.9 °F 69.8 °F 70% 29.81 in 20.0 mi SSW 5.8 mph - N/A   Overcast
8:55 PM 80.6 °F 83.9 °F 69.8 °F 70% 29.82 in 10.0 mi SSW 3.5 mph - N/A   Clear
9:15 PM 80.6 °F 83.9 °F 69.8 °F 70% 29.82 in 10.0 mi South 3.5 mph - N/A   Clear
9:35 PM 80.6 °F 83.2 °F 68.0 °F 65% 29.82 in 10.0 mi SSE 3.5 mph - N/A   Scattered Clouds
9:47 PM 80.6 °F 83.2 °F 68.0 °F 65% 29.82 in 20.0 mi SSW 5.8 mph - N/A   Mostly Cloudy
9:55 PM 80.6 °F 83.9 °F 69.8 °F 70% 29.83 in 10.0 mi SSW 3.5 mph - N/A   Mostly Cloudy
10:15 PM 80.6 °F 83.9 °F 69.8 °F 70% 29.83 in 10.0 mi SSW 5.8 mph - N/A   Overcast
10:35 PM 78.8 °F - 69.8 °F 74% 29.82 in 10.0 mi SSW 3.5 mph - N/A   Scattered Clouds
10:50 PM 80.6 °F 83.9 °F 69.8 °F 70% 29.82 in 20.0 mi Calm Calm - N/A   Mostly Cloudy
10:55 PM 80.6 °F 83.9 °F 69.8 °F 70% 29.82 in 10.0 mi Calm Calm - N/A   Clear
11:15 PM 80.6 °F 83.9 °F 69.8 °F 70% 29.82 in 10.0 mi Calm Calm - N/A   Scattered Clouds
11:35 PM 78.8 °F - 69.8 °F 74% 29.82 in 10.0 mi NE 3.5 mph - N/A   Overcast
11:50 PM 78.8 °F - 69.8 °F 74% 29.82 in 20.0 mi Calm Calm - N/A   Mostly Cloudy
11:55 PM 78.8 °F - 69.8 °F 74% 29.82 in 10.0 mi Calm Calm - N/A   Scattered Clouds